Regional Weather Roundup
Issued by NWS

Home | Current Version | Previous Version | Graphics & Text | Print | Product List | Glossary On
Versions: 1 2 3 4 5 6 7 8 9 10 11 12 13 14 15 16 17 18 19 20 21 22 23 24 25 26 27 28 29 30 31 32 33 34 35 36 37 38 39 40 41 42 43 44 45 46 47 48 49 50
000
ASUS43 KMPX 231701
RWRMN
WEATHER ROUNDUP FOR MINNESOTA
NATIONAL WEATHER SERVICE TWIN CITIES/CHANHASSEN MN
1200 PM CDT SAT JUL 23 2016


NOTE: "FAIR" INDICATES FEW OR NO CLOUDS BELOW 12,000 FEET WITH NO
SIGNIFICANT WEATHER AND/OR OBSTRUCTIONS TO VISIBILITY. N/A MEANS
CURRENT SKY AND/OR WEATHER CONDITIONS ARE NOT AVAILABLE.

MNZ060>063-068>070-231800-
   Twin Cities Metro

CITY           SKY/WX    TMP DP  RH WIND       PRES   REMARKS
TWIN CITIES    RAIN      73  70  90 SE13      29.90F FOG
ST PAUL        LGT RAIN  72  70  93 S13       29.89F FOG
CRYSTAL        LGT RAIN  72  68  87 SE7       29.89R FOG
BLAINE         LGT RAIN  72  72 100 SE7       29.88F
LAKEVILLE      RAIN      70  70 100 SE12G17   29.91F
EDEN PRAIRIE   RAIN      72  69  90 E9        29.89F FOG
LAKEVILLE      RAIN      70  70 100 SE12G17   29.91F
SOUTH ST PAUL  RAIN      71  70  96 SE8       29.91F
LAKE ELMO      TSTM      70  68  94 SE6       29.91F
$$
MNZ001>005-007-008-013>017-022>024-027-028-231800-
   Northwest Minnesota

CITY           SKY/WX    TMP DP  RH WIND       PRES   REMARKS
BEMIDJI        CLOUDY    79  63  57 SE15      29.83F
HALLOCK        LGT RAIN  66  64  94 NE12      29.82F
ROSEAU         CLOUDY    72  66  83 E6        29.83F
WARROAD        CLOUDY    72  66  83 E7        29.84F
THIEF RVR FALL CLOUDY    75  66  73 E9        29.79F
CROOKSTON      CLOUDY    82  66  57 E9        29.76F
FOSSTON        CLOUDY    81  66  61 SE12G20   29.78F
DETROIT LAKES  CLOUDY    77  64  65 SE17G23   29.78R
MOORHEAD       CLOUDY    79  70  73 S9        29.73R
PARK RAPIDS    CLOUDY    78  65  63 SE13G22   29.83R
MAHNOMEN       FAIR      80  67  65 SE15G21   29.75F
$$
MNZ006-009>011-018-025>026-231800-
   North Central Minnesota

CITY           SKY/WX    TMP DP  RH WIND       PRES   REMARKS
BAUDETTE       CLOUDY    75  63  66 E8        29.84F
FLAG ISLAND    CLOUDY    72  63  73 CALM      29.87F
INTL FALLS     MOSUNNY   78  62  57 SE10      29.87F
WASKISH        CLOUDY    77  64  65 E8        29.83F
BIG FORK       CLOUDY    77  64  65 SE5       29.88R
LONGVILLE      CLOUDY    75  66  73 CALM      29.87R
GRAND RAPIDS   CLOUDY    78  64  61 SE8       29.91R
CRANE LAKE     CLOUDY    79  63  57 SE2       29.89F
ORR            CLOUDY    79  61  53 SE3       29.86F
COOK           CLOUDY    81  61  50 SE9       29.89F
WALKER         FAIR      75  65  71 E7        29.85S
$$
MNZ012-019>021-037-231800-
   Northeast Minnesota

CITY           SKY/WX    TMP DP  RH WIND       PRES   REMARKS
DULUTH         CLOUDY    76  63  64 E13       29.95R
ELY            CLOUDY    81  57  44 SE14      29.91F
HIBBING        CLOUDY    77  59  53 SE14G22   29.91R
EVELETH        CLOUDY    78  57  48 SE8G17    29.92S
DULUTH HARBOR  CLOUDY    70  63  78 NE10      29.95R
TWO HARBORS    MOSUNNY   79  64  61 E12       29.95R
SILVER BAY     CLOUDY    75  63  64 E12G18    29.95R
GRAND MARAIS     N/A     65  55  70 NE13      29.96F
G MARAIS ARPRT SUNNY     72  55  56 SE8       30.00F
$$
MNZ029>031-032-039>041-046>048-054>057-064-231800-
   West Central Minnesota

CITY           SKY/WX    TMP DP  RH WIND       PRES   REMARKS
FERGUS FALLS   CLOUDY    75  66  73 SE14      29.75R
WHEATON        CLOUDY    75  72  88 SE10      29.74S
MORRIS         LGT RAIN  72  70  94 CALM      29.78R
ALEXANDRIA     LGT RAIN  69  67  93 NE9       29.82S
ELBOW LAKE     FAIR      71  67  87 SE13      29.76S
WADENA         CLOUDY    72  64  78 SE9       29.81R
GLENWOOD       LGT RAIN  68  66  94 E10       29.79F
APPLETON       LGT RAIN  72  68  88 SE12      29.74F
BENSON         LGT RAIN  72  66  83 S5        29.76F
ORTONVILLE     CLOUDY    72  68  88 SE10G16   29.73R
MADISON        CLOUDY    72  72 100 SE14      29.77R
WILLMAR        RAIN      72  70  94 SE8       29.80S
$$
MNZ033>034-036-042>043-049>051-058-059-231800-
   Central Minnesota

CITY           SKY/WX    TMP DP  RH WIND       PRES   REMARKS
ST CLOUD       TSTM      69  69 100 SW5       29.89R FOG
SAUK CENTRE    LGT RAIN  69  67  95 E9        29.82F
PAYNESVILLE    CLOUDY    70  70 100 E6        29.81F
AITKIN         CLOUDY    79  63  57 SE6       29.88R
PINE RIVER     CLOUDY    73  66  78 SE6       29.89F
BRAINERD       CLOUDY    73  66  78 SE6       29.87R
STAPLES        TSTM      72  64  78 SE8       29.83F
LONG PRAIRIE   LGT RAIN  68  66  94 NE8       29.84S
LITTLE FALLS   TSTM      68  64  88 S12G17    29.89R VSB 3/4
LITCHFIELD     CLOUDY    70  70 100 E6        29.83F
BUFFALO        TSTM      71  67  89 W14       29.87R
MAPLE LAKE     TSTM      71  69  95 W6        29.88R
HUTCHINSON     CLOUDY    71  71  98 E7        29.84R
$$
MNZ037-044-045-052-053-231800-
   East Central Minnesota

CITY           SKY/WX    TMP DP  RH WIND       PRES   REMARKS
PRINCETON      CLOUDY    79  70  73 E7        29.87R THUNDER
MORA           CLOUDY    73  64  73 SE7       29.90S
CAMBRIDGE      CLOUDY    81  66  61 SE17G26   29.85F
RUSH CITY      CLOUDY    76  68  76 SE7       29.89S
MOOSE LAKE     CLOUDY    77  64  65 CALM      29.91R
HINCKLEY       FAIR      77  70  78 E8        29.90F
CLOQUET        CLOUDY    75  61  60 E7        29.94R
MCGREGOR       CLOUDY    77  64  65 SE8       29.91R
$$
MNZ071>073-080-081-089-090-097-098-231800-
   Southwest Minnesota

CITY           SKY/WX    TMP DP  RH WIND       PRES   REMARKS
MONTEVIDEO     LGT RAIN  72  72 100 S9        29.81R
GRANITE FALLS  CLOUDY    73  72  95 E5        29.81R
CANBY          PTSUNNY   74  71  91 SE13G18   29.79R
MARSHALL       CLOUDY    75  73  93 E9        29.79R
REDWOOD FALLS  CLOUDY    72  70  93 E12       29.79F
OLIVIA         LGT RAIN  70  68  94 E6        29.80R
PIPESTONE      CLOUDY    81  75  83 S17G23    29.79F
WINDOM         CLOUDY    79  72  78 S5        29.80F
WORTHINGTON    CLOUDY    80  75  84 S15       29.81F
JACKSON        CLOUDY    77  70  78 S9        29.83S
TRACY          CLOUDY    81  78  91 S10G16    29.79S
SLAYTON        RAIN      79  73  81 S14       29.82S
$$
MNZ065>067-074>077-082>085-091>093-231800-
   South Central Minnesota

CITY           SKY/WX    TMP DP  RH WIND       PRES   REMARKS
MANKATO        CLOUDY    73  70  88 SE18      29.85R
NEW ULM        CLOUDY    75  75 100 SE6       29.81F
ST JAMES       CLOUDY    73  68  83 SE10      29.81F
FAIRMONT       CLOUDY    73  55  53 SE13G18   29.81F
GLENCOE        CLOUDY    73  72  97 NE6       29.86R
FARIBAULT      LGT RAIN  72  72 100 E10       29.92R
OWATONNA       RAIN      73  70  88 SE12      29.93R
WASECA         LGT RAIN  72  70  94 E15       29.87R
ALBERT LEA     RAIN      75  73  94 S5        29.94R
$$
MNZ078>079-086>088-094>096-231800-
   Southeast Minnesota

CITY           SKY/WX    TMP DP  RH WIND       PRES   REMARKS
ROCHESTER      RAIN      71  69  93 E15       29.96F FOG
RED WING       RAIN      72  70  94 E5        29.93F
STANTON        CLOUDY    72  68  88 E7        29.90F
DODGE CENTER   LGT RAIN N/A N/A N/A SE13G21   29.95S
WINONA         RAIN      72  70  94 NW3       29.97F
AUSTIN         TSTM      73  70  88 E18G30    29.94R VSB 1
PRESTON        RAIN      69  67  93 NE9       30.00F
$$
ABBREVIATIONS USED IN REMARKS
   TC - TEMPERATURES IN CELSIUS
  WCI - WIND CHILL INDEX
   HX - HEAT INDEX
  VSB - VISIBILITY
$$




USA.gov is the U.S. government's official web portal to all federal, state and local government web resources and services.